Doylestown, PA

1:50 PM EDT on July 25, 2017 (GMT -0400)
Doylestown

Weather History for KDYL - October, 2012

Change the Weather History Date:

Monday, October 29, 2012

  Actual Average (KTTN) Record (KTTN)
Temperature  
Mean Temperature 55 °F -  
Max Temperature 60 °F 58 °F 79 °F (1918)
Min Temperature 50 °F 39 °F 22 °F (1985)
Degree Days  
Heating Degree Days 10    
Growing Degree Days 5 (Base 50)    
Moisture  
Dew Point 51 °F    
Average Humidity 89    
Maximum Humidity 100    
Minimum Humidity 71    
Precipitation  
Precipitation 1.44 in - - ()
Sea Level Pressure  
Sea Level Pressure 29.02 in    
Wind  
Wind Speed 19 mph (NNE)    
Max Wind Speed 31 mph    
Max Gust Speed 51 mph    
Visibility 5 miles    
Events Rain    
Averages and records for this station are not official NWS values.
T = Trace of Precipitation, MM = Missing Value Source: NWS Daily Summary

Daily Weather History Graph

Daily Weather History Graph

Search for Another Location

Airport or City:

Trip Planner

Search our weather history database for the weather conditions in past years. The results will help you decide how hot, cold, wet, or windy it might be!

Date:

Astronomy

Oct. 29, 2012 Rise Set
Actual Time 7:27 AM EDT 6:00 PM EDT
Civil Twilight 6:59 AM EDT 6:28 PM EDT
Nautical Twilight 6:27 AM EDT 7:00 PM EDT
Astronomical Twilight 5:55 AM EDT 7:32 PM EDT
Moon 5:51 PM EDT (10/29) 7:15 AM EDT (10/29)
Length of Visible Light 11h 29m
Length of Day
10h 33m
Full, 100% of the Moon is Illuminated
Oct 29
Full
Oct 29
Full
Nov 6
Last Quarter
Nov 13
New
Nov 20
First Quarter

Hourly Weather History & Observations

Time (EDT) Temp. Dew Point Humidity Pressure Visibility Wind Dir Wind Speed Gust Speed Precip Events Conditions
12:54 AM 53.1 °F 46.0 °F 77% 29.62 in 10.0 mi NE 16.1 mph 21.9 mph 0.00 in Rain Light Rain
1:03 AM 53.6 °F 46.4 °F 77% 29.61 in 10.0 mi NNE 12.7 mph 21.9 mph 0.00 in   Overcast
1:54 AM 53.1 °F 45.0 °F 74% 29.58 in 10.0 mi NNE 18.4 mph 26.5 mph 0.00 in   Overcast
2:54 AM 53.1 °F 45.0 °F 74% 29.56 in 10.0 mi NNE 12.7 mph 23.0 mph N/A   Overcast
3:54 AM 53.1 °F 44.1 °F 71% 29.52 in 10.0 mi NNE 17.3 mph 24.2 mph N/A   Overcast
4:54 AM 53.1 °F 44.1 °F 71% 29.48 in 10.0 mi NNE 18.4 mph 26.5 mph N/A   Overcast
5:54 AM 52.0 °F 46.0 °F 80% 29.42 in 10.0 mi North 13.8 mph 27.6 mph 0.00 in   Overcast
6:54 AM 53.1 °F 46.0 °F 77% 29.40 in 10.0 mi North 15.0 mph 27.6 mph N/A   Overcast
7:54 AM 51.1 °F 48.0 °F 89% 29.36 in 8.0 mi North 13.8 mph 32.2 mph 0.07 in Rain Rain
8:54 AM 51.1 °F 48.0 °F 89% 29.31 in 4.0 mi North 17.3 mph 28.8 mph 0.18 in Rain Rain
9:06 AM 51.8 °F 48.2 °F 88% 29.30 in 4.0 mi North 18.4 mph 28.8 mph 0.04 in Rain Rain
9:17 AM 50.0 °F 48.2 °F 94% 29.28 in 1.8 mi North 18.4 mph 29.9 mph 0.14 in Rain Heavy Rain
9:25 AM 50.0 °F 48.2 °F 94% 29.26 in 2.0 mi North 21.9 mph 31.1 mph 0.18 in Rain Heavy Rain
9:35 AM 50.0 °F 48.2 °F 94% 29.24 in 4.0 mi North 19.6 mph 32.2 mph 0.20 in Rain Rain
9:54 AM 51.1 °F 48.9 °F 92% 29.23 in 3.0 mi North 18.4 mph 31.1 mph 0.26 in Rain Rain
10:03 AM 51.8 °F 48.2 °F 88% 29.21 in 5.0 mi North 18.4 mph 29.9 mph 0.01 in Rain Rain
10:35 AM 51.8 °F 50.0 °F 94% 29.18 in 3.0 mi NNE 18.4 mph 38.0 mph 0.07 in Rain Rain
10:54 AM 51.1 °F 50.0 °F 96% 29.16 in 4.0 mi North 17.3 mph 34.5 mph 0.10 in Rain Light Rain
10:59 AM 51.8 °F 50.0 °F 94% 29.15 in 4.0 mi North 19.6 mph 34.5 mph 0.00 in Rain Light Rain
11:54 AM 52.0 °F 51.1 °F 97% 29.08 in 4.0 mi North 21.9 mph 35.7 mph 0.08 in Rain Light Rain
12:07 PM 51.8 °F 51.8 °F 100% 29.06 in 3.0 mi NNE 24.2 mph 38.0 mph 0.03 in Rain Rain
12:54 PM 52.0 °F 51.1 °F 97% 28.98 in 4.0 mi North 19.6 mph 33.4 mph 0.12 in Rain Rain
1:49 PM 53.6 °F 51.8 °F 94% 28.88 in 4.0 mi NNE 21.9 mph 39.1 mph 0.06 in Rain Light Rain
1:54 PM 54.0 °F 52.0 °F 93% 28.87 in 5.0 mi NNE 26.5 mph 41.4 mph 0.06 in Rain Light Rain
2:44 PM 53.6 °F 53.6 °F 100% 28.78 in 2.5 mi North 25.3 mph 48.3 mph 0.14 in Rain Heavy Rain
2:54 PM 55.0 °F 53.1 °F 93% 28.76 in 3.0 mi North 26.5 mph 48.3 mph 0.17 in Rain Heavy Rain
3:04 PM 55.4 °F 53.6 °F 94% 28.74 in 2.5 mi North 28.8 mph 42.6 mph 0.05 in Rain Heavy Rain
3:15 PM 55.4 °F 53.6 °F 94% 28.73 in 3.0 mi North 28.8 mph 46.0 mph 0.10 in Rain Heavy Rain
3:54 PM 55.0 °F 53.1 °F 93% 28.66 in 3.0 mi North 24.2 mph 50.6 mph 0.23 in Rain Rain
4:54 PM 55.9 °F 54.0 °F 93% 28.53 in 8.0 mi North 23.0 mph 40.3 mph 0.10 in Rain Light Rain
5:54 PM 57.0 °F 55.0 °F 93% 28.45 in 5.0 mi North 25.3 mph 42.6 mph 0.03 in   Overcast
6:09 PM 57.2 °F 55.4 °F 94% 28.43 in 6.0 mi North 25.3 mph 40.3 mph 0.01 in   Overcast
6:20 PM 57.2 °F 55.4 °F 94% 28.42 in 5.0 mi North 25.3 mph 38.0 mph 0.02 in Rain Light Rain
6:52 PM 59.0 °F 57.2 °F 94% 28.39 in 5.0 mi NNE 25.3 mph 38.0 mph 0.04 in Rain Light Rain
6:54 PM 59.0 °F 57.9 °F 96% 28.38 in 5.0 mi NNE 26.5 mph 38.0 mph 0.04 in Rain Rain
7:04 PM 60.8 °F 57.2 °F 88% 28.37 in 5.0 mi NNE 31.1 mph 44.9 mph 0.02 in Rain Light Rain
7:27 PM 60.8 °F 57.2 °F 88% 28.38 in - North - - 0.03 in   Unknown